Zurück zum Katalog

STARLINK-36646

AktivKommunikationVLEO
NORAD 67823·PAYLOAD·🇺🇸 United States

Gestartet Feb 16, 2026 von Vandenberg Space Force Base

Loading…

Nächste Überflüge (nächste 24 Stunden)

TLE

AktuellSource: CelesTrak SupGP

Epoche: Sep 14, 2026, 22:32 UTC

1 67823C 26033C   26257.93937500  .00027186  00000+0  98575-3 0  2575
2 67823  43.0024 278.2869 0001846 263.2969 224.3614 15.27528062    10

Verfolge STARLINK-36646 in Echtzeit mit AllMySat

Download on the App Store